Time,TemperatureF,DewpointF,PressureIn,WindDirection,WindDirectionDegrees,WindSpeedMPH,WindSpeedGustMPH,Humidity,HourlyPrecipIn,Conditions,Clouds,dailyrainin,SoftwareType,DateUTC
2013-09-03 00:14:00,75.0,72.0,29.80,SW,230,0.0,3.0,91,0.00,,,0.00,,2013-09-03 04:14:00,
2013-09-03 00:25:00,75.0,72.0,29.80,SW,230,0.0,0.0,91,0.00,,,0.00,,2013-09-03 04:25:00,
2013-09-03 00:34:00,75.0,72.0,29.80,SW,230,0.0,0.0,91,0.00,,,0.00,,2013-09-03 04:34:00,
2013-09-03 00:44:00,75.0,72.0,29.80,SW,230,0.0,0.0,91,0.00,,,0.00,,2013-09-03 04:44:00,
2013-09-03 00:53:00,75.0,72.0,29.80,SW,230,0.0,0.0,91,0.00,,,0.00,,2013-09-03 04:53:00,
2013-09-03 01:12:00,75.0,73.0,29.80,SW,230,0.0,0.0,92,0.00,,,0.00,,2013-09-03 05:12:00,
2013-09-03 01:23:00,74.0,72.0,29.80,SW,230,0.0,0.0,92,0.00,,,0.00,,2013-09-03 05:23:00,
2013-09-03 01:43:00,74.0,72.0,29.80,SW,230,0.0,0.0,93,0.00,,,0.00,,2013-09-03 05:43:00,
2013-09-03 01:52:00,74.0,72.0,29.80,SW,230,0.0,0.0,93,0.00,,,0.00,,2013-09-03 05:52:00,
2013-09-03 02:12:00,73.0,71.0,29.80,SSW,212,0.0,3.0,94,0.00,,,0.00,,2013-09-03 06:12:00,
2013-09-03 02:22:00,73.0,71.0,29.80,SSW,212,0.0,1.0,94,0.00,,,0.00,,2013-09-03 06:22:00,
2013-09-03 02:43:00,73.0,71.0,29.80,SSW,212,0.0,0.0,93,0.00,,,0.00,,2013-09-03 06:43:00,
2013-09-03 02:52:00,72.0,70.0,29.79,SSW,212,0.0,1.0,94,0.00,,,0.00,,2013-09-03 06:52:00,
2013-09-03 03:12:00,72.0,70.0,29.79,West,269,1.0,4.0,94,0.00,,,0.00,,2013-09-03 07:12:00,
2013-09-03 03:22:00,72.0,70.0,29.78,West,266,0.0,3.0,95,0.00,,,0.00,,2013-09-03 07:22:00,
2013-09-03 03:53:00,72.0,70.0,29.79,West,266,0.0,2.0,95,0.00,,,0.00,,2013-09-03 07:53:00,
2013-09-03 04:11:00,72.0,70.0,29.79,West,267,0.0,3.0,95,0.00,,,0.00,,2013-09-03 08:11:00,
2013-09-03 04:22:00,72.0,70.0,29.79,West,266,0.0,2.0,95,0.00,,,0.00,,2013-09-03 08:22:00,
2013-09-03 04:52:00,71.0,70.0,29.80,West,261,1.0,4.0,96,0.00,,,0.00,,2013-09-03 08:52:00,
2013-09-03 05:11:00,71.0,70.0,29.80,WNW,284,0.0,3.0,96,0.00,,,0.00,,2013-09-03 09:11:00,
2013-09-03 05:22:00,71.0,70.0,29.80,WNW,284,0.0,3.0,96,0.00,,,0.00,,2013-09-03 09:22:00,
2013-09-03 05:43:00,71.0,69.0,29.80,WNW,284,0.0,0.0,95,0.00,,,0.00,,2013-09-03 09:43:00,
2013-09-03 05:53:00,71.0,69.0,29.80,WSW,246,1.0,2.0,95,0.00,,,0.00,,2013-09-03 09:53:00,
2013-09-03 06:13:00,71.0,70.0,29.80,West,278,0.0,3.0,96,0.00,,,0.00,,2013-09-03 10:13:00,
2013-09-03 06:23:00,71.0,70.0,29.80,West,271,0.0,5.0,96,0.00,,,0.00,,2013-09-03 10:23:00,
2013-09-03 06:42:00,71.0,70.0,29.81,WNW,287,1.0,4.0,96,0.00,,,0.00,,2013-09-03 10:42:00,
2013-09-03 06:53:00,71.0,70.0,29.81,West,269,0.0,4.0,96,0.00,,,0.00,,2013-09-03 10:53:00,
2013-09-03 07:12:00,71.0,70.0,29.83,West,268,3.0,5.0,96,0.00,,,0.00,,2013-09-03 11:12:00,
2013-09-03 07:23:00,71.0,70.0,29.83,WNW,292,1.0,5.0,96,0.00,,,0.00,,2013-09-03 11:23:00,
2013-09-03 07:43:00,71.0,70.0,29.85,WNW,292,2.0,4.0,96,0.00,,,0.00,,2013-09-03 11:43:00,
2013-09-03 07:52:00,70.0,69.0,29.85,WNW,290,2.0,5.0,96,0.00,,,0.00,,2013-09-03 11:52:00,
2013-09-03 08:12:00,71.0,70.0,29.86,WNW,286,3.0,6.0,96,0.00,,,0.00,,2013-09-03 12:12:00,
2013-09-03 08:22:00,71.0,69.0,29.89,NW,315,7.0,12.0,95,0.00,,,0.00,,2013-09-03 12:22:00,
2013-09-03 08:42:00,70.0,68.0,29.91,NW,305,10.0,18.0,92,0.09,,,0.09,,2013-09-03 12:42:00,
2013-09-03 08:52:00,68.0,66.0,29.86,SW,228,0.0,2.0,93,0.17,,,0.17,,2013-09-03 12:52:00,
2013-09-03 09:11:00,67.0,65.0,29.81,East,82,1.0,3.0,94,0.22,,,0.22,,2013-09-03 13:11:00,
2013-09-03 09:22:00,67.0,66.0,29.79,WSW,244,0.0,5.0,95,0.22,,,0.23,,2013-09-03 13:22:00,
2013-09-03 09:42:00,67.0,66.0,29.81,WNW,295,2.0,5.0,95,0.14,,,0.24,,2013-09-03 13:42:00,
2013-09-03 09:52:00,67.0,66.0,29.82,West,275,0.0,7.0,96,0.06,,,0.24,,2013-09-03 13:52:00,
2013-09-03 10:11:00,68.0,67.0,29.83,West,266,1.0,9.0,96,0.02,,,0.24,,2013-09-03 14:11:00,
2013-09-03 10:21:00,68.0,67.0,29.83,WNW,289,1.0,6.0,96,0.01,,,0.24,,2013-09-03 14:21:00,
2013-09-03 10:42:00,69.0,68.0,29.83,WNW,287,0.0,5.0,96,0.00,,,0.24,,2013-09-03 14:42:00,
2013-09-03 10:52:00,70.0,69.0,29.83,West,276,1.0,5.0,96,0.00,,,0.24,,2013-09-03 14:52:00,
2013-09-03 11:22:00,73.0,71.0,29.86,WNW,283,0.0,3.0,92,0.00,,,0.24,,2013-09-03 15:22:00,
2013-09-03 11:34:00,73.0,71.0,29.86,WNW,283,0.0,3.0,92,0.00,,,0.24,,2013-09-03 15:34:00,
2013-09-03 11:43:00,73.0,71.0,29.86,WNW,283,0.0,3.0,92,0.00,,,0.24,,2013-09-03 15:43:00,
2013-09-03 11:54:00,78.0,72.0,29.86,WNW,288,0.0,2.0,83,0.00,,,0.24,,2013-09-03 15:54:00,
2013-09-03 12:14:00,79.0,72.0,29.87,North,350,0.0,2.0,80,0.00,,,0.24,,2013-09-03 16:14:00,
2013-09-03 12:24:00,80.0,72.0,29.87,NW,308,0.0,3.0,78,0.00,,,0.24,,2013-09-03 16:24:00,
2013-09-03 12:43:00,81.0,71.0,29.87,ENE,69,0.0,5.0,72,0.00,,,0.24,,2013-09-03 16:43:00,
2013-09-03 12:54:00,82.0,72.0,29.87,SSE,162,0.0,2.0,71,0.00,,,0.24,,2013-09-03 16:54:00,
2013-09-03 13:13:00,83.0,72.0,29.86,SE,130,0.0,2.0,70,0.00,,,0.24,,2013-09-03 17:13:00,
2013-09-03 13:23:00,83.0,72.0,29.86,SE,130,0.0,2.0,70,0.00,,,0.24,,2013-09-03 17:23:00,
2013-09-03 13:43:00,84.0,73.0,29.86,NNE,28,0.0,4.0,70,0.00,,,0.24,,2013-09-03 17:43:00,
2013-09-03 13:52:00,85.0,71.0,29.86,NNW,348,1.0,3.0,63,0.00,,,0.24,,2013-09-03 17:52:00,
2013-09-03 14:12:00,85.0,72.0,29.85,WNW,292,0.0,3.0,66,0.00,,,0.24,,2013-09-03 18:12:00,
2013-09-03 14:22:00,85.0,70.0,29.85,NE,46,0.0,3.0,62,0.00,,,0.24,,2013-09-03 18:22:00,
2013-09-03 14:43:00,87.0,70.0,29.85,West,281,2.0,5.0,57,0.00,,,0.24,,2013-09-03 18:43:00,
2013-09-03 14:52:00,88.0,69.0,29.85,NW,308,1.0,4.0,54,0.00,,,0.24,,2013-09-03 18:52:00,
2013-09-03 15:11:00,88.0,70.0,29.84,WNW,290,2.0,5.0,55,0.00,,,0.24,,2013-09-03 19:11:00,
2013-09-03 15:22:00,89.0,70.0,29.83,West,260,1.0,6.0,53,0.00,,,0.24,,2013-09-03 19:22:00,
2013-09-03 15:32:00,89.0,70.0,29.83,West,260,1.0,6.0,53,0.00,,,0.24,,2013-09-03 19:32:00,
2013-09-03 15:42:00,89.0,70.0,29.83,West,260,1.0,6.0,53,0.00,,,0.24,,2013-09-03 19:42:00,
2013-09-03 15:52:00,88.0,69.0,29.82,WSW,248,0.0,6.0,53,0.00,,,0.24,,2013-09-03 19:52:00,
2013-09-03 16:11:00,90.0,69.0,29.82,West,279,2.0,7.0,51,0.00,,,0.24,,2013-09-03 20:11:00,
2013-09-03 16:22:00,90.0,69.0,29.81,WNW,288,4.0,7.0,51,0.00,,,0.24,,2013-09-03 20:22:00,
2013-09-03 16:42:00,90.0,70.0,29.81,NW,310,3.0,7.0,52,0.00,,,0.24,,2013-09-03 20:42:00,
2013-09-03 16:53:00,89.0,69.0,29.81,WNW,286,0.0,3.0,52,0.00,,,0.24,,2013-09-03 20:53:00,
2013-09-03 17:12:00,88.0,69.0,29.81,WNW,284,1.0,4.0,54,0.00,,,0.24,,2013-09-03 21:12:00,
2013-09-03 17:22:00,89.0,68.0,29.80,WNW,284,1.0,4.0,51,0.00,,,0.24,,2013-09-03 21:22:00,
2013-09-03 17:44:00,89.0,69.0,29.80,West,277,0.0,4.0,52,0.00,,,0.24,,2013-09-03 21:44:00,
2013-09-03 17:54:00,88.0,70.0,29.81,SSE,161,1.0,4.0,56,0.00,,,0.24,,2013-09-03 21:54:00,
2013-09-03 18:13:00,88.0,71.0,29.81,SSW,210,3.0,6.0,57,0.00,,,0.24,,2013-09-03 22:13:00,
2013-09-03 18:24:00,87.0,70.0,29.81,SSW,201,1.0,5.0,57,0.00,,,0.24,,2013-09-03 22:24:00,
2013-09-03 18:53:00,87.0,73.0,29.82,SSW,192,0.0,4.0,63,0.00,,,0.24,,2013-09-03 22:53:00,
2013-09-03 19:12:00,87.0,76.0,29.82,SSW,192,0.0,0.0,69,0.00,,,0.24,,2013-09-03 23:12:00,
2013-09-03 19:23:00,86.0,74.0,29.82,SSW,192,0.0,1.0,67,0.00,,,0.24,,2013-09-03 23:23:00,
2013-09-03 19:42:00,85.0,77.0,29.82,SSW,192,0.0,0.0,77,0.00,,,0.24,,2013-09-03 23:42:00,
2013-09-03 19:54:00,84.0,76.0,29.83,SSW,192,0.0,0.0,78,0.00,,,0.24,,2013-09-03 23:54:00,
2013-09-03 20:12:00,82.0,74.0,29.83,SSW,192,0.0,0.0,78,0.00,,,0.24,,2013-09-04 00:12:00,
2013-09-03 20:22:00,81.0,75.0,29.84,SSW,192,0.0,0.0,82,0.00,,,0.24,,2013-09-04 00:22:00,
2013-09-03 20:42:00,80.0,75.0,29.84,SSW,192,0.0,0.0,84,0.00,,,0.24,,2013-09-04 00:42:00,
2013-09-03 20:52:00,79.0,74.0,29.85,SSW,192,0.0,0.0,86,0.00,,,0.24,,2013-09-04 00:52:00,
2013-09-03 21:12:00,78.0,74.0,29.86,SSW,192,0.0,0.0,88,0.00,,,0.24,,2013-09-04 01:12:00,
2013-09-03 21:22:00,77.0,73.0,29.87,SSW,192,0.0,0.0,88,0.00,,,0.24,,2013-09-04 01:22:00,
2013-09-03 21:42:00,77.0,74.0,29.87,SSW,192,0.0,0.0,89,0.00,,,0.24,,2013-09-04 01:42:00,
2013-09-03 21:53:00,76.0,73.0,29.88,SSW,192,0.0,0.0,90,0.00,,,0.24,,2013-09-04 01:53:00,
2013-09-03 22:11:00,75.0,72.0,29.88,SSW,192,0.0,0.0,90,0.00,,,0.24,,2013-09-04 02:11:00,
2013-09-03 22:22:00,75.0,72.0,29.89,SSW,192,0.0,0.0,91,0.00,,,0.24,,2013-09-04 02:22:00,
2013-09-03 22:43:00,75.0,73.0,29.89,SSW,192,0.0,0.0,92,0.00,,,0.24,,2013-09-04 02:43:00,
2013-09-03 22:52:00,74.0,72.0,29.90,SSW,192,0.0,2.0,93,0.00,,,0.24,,2013-09-04 02:52:00,
2013-09-03 23:11:00,74.0,72.0,29.91,West,273,0.0,2.0,93,0.00,,,0.24,,2013-09-04 03:11:00,
2013-09-03 23:22:00,74.0,72.0,29.91,West,273,0.0,2.0,93,0.00,,,0.24,,2013-09-04 03:22:00,
2013-09-03 23:44:00,74.0,72.0,29.91,West,273,0.0,3.0,93,0.00,,,0.24,,2013-09-04 03:44:00,
2013-09-03 23:55:00,74.0,72.0,29.91,WSW,240,0.0,1.0,92,0.00,,,0.24,,2013-09-04 03:55:00,